�������l�o���
Date,Time,MP-1(��Sv/h),MP-2(��Sv/h),MP-3(��Sv/h),MP-4(��Sv/h),MP-5(��Sv/h),MP-6(��Sv/h),MP-7(��Sv/h),MP-8(��Sv/h),����,����(m/s),���J
2017/03/18,00:00,1.024,1.679,1.140,1.983,1.374,0.545,1.003,0.932,���k��,3.2,��
2017/03/18,00:10,1.022,1.678,1.139,1.980,1.375,0.546,1.002,0.932,���k��,2.9,��
2017/03/18,00:20,1.023,1.676,1.138,1.984,1.371,0.545,1.002,0.931,���k��,4.3,��
2017/03/18,00:30,1.021,1.677,1.139,1.985,1.368,0.546,1.003,0.931,�k��,3.4,��
2017/03/18,00:40,1.021,1.679,1.140,1.979,1.373,0.544,1.002,0.930,���k��,5.6,��
2017/03/18,00:50,1.022,1.678,1.139,1.984,1.371,0.545,0.999,0.931,���k��,7.4,��
2017/03/18,01:00,1.020,1.678,1.139,1.980,1.371,0.544,1.003,0.931,�k��,5.1,��
2017/03/18,01:10,1.020,1.678,1.137,1.982,1.373,0.544,1.001,0.930,�k�k��,3.2,��
2017/03/18,01:20,1.019,1.679,1.139,1.982,1.374,0.546,1.003,0.932,�k��,2.2,��
2017/03/18,01:30,1.020,1.677,1.138,1.981,1.373,0.545,1.001,0.930,���k��,2.3,��
2017/03/18,01:40,1.020,1.676,1.137,1.982,1.373,0.544,1.002,0.930,���k��,4.1,��
2017/03/18,01:50,1.020,1.674,1.137,1.984,1.370,0.544,1.001,0.931,���k��,5.1,��
2017/03/18,02:00,1.022,1.676,1.141,1.986,1.372,0.544,1.003,0.931,���k��,4.4,��
2017/03/18,02:10,1.021,1.677,1.139,1.984,1.372,0.544,1.002,0.930,�k��,4.1,��
2017/03/18,02:20,1.020,1.678,1.139,1.982,1.370,0.544,1.000,0.930,�k��,5.1,��
2017/03/18,02:30,1.021,1.673,1.139,1.983,1.373,0.546,1.001,0.931,��,5.7,��
2017/03/18,02:40,1.021,1.678,1.136,1.982,1.370,0.544,1.001,0.931,��,5.2,��
2017/03/18,02:50,1.021,1.678,1.139,1.984,1.370,0.545,1.002,0.930,��,6.1,��
2017/03/18,03:00,1.019,1.677,1.138,1.984,1.373,0.545,1.002,0.930,��,6.7,��
2017/03/18,03:10,1.019,1.675,1.138,1.982,1.371,0.543,1.002,0.932,��,6.3,��
2017/03/18,03:20,1.020,1.675,1.138,1.983,1.370,0.544,1.002,0.930,���쐼,6.1,��
2017/03/18,03:30,1.020,1.676,1.140,1.981,1.371,0.544,1.003,0.930,��,4.9,��
2017/03/18,03:40,1.021,1.677,1.137,1.983,1.372,0.544,1.000,0.931,��,3.2,��
2017/03/18,03:50,1.020,1.677,1.138,1.981,1.372,0.544,1.001,0.933,���쐼,3.2,��
2017/03/18,04:00,1.019,1.676,1.137,1.981,1.368,0.546,1.001,0.930,���쐼,2.6,��
2017/03/18,04:10,1.020,1.676,1.137,1.981,1.371,0.546,1.001,0.929,���쐼,2.2,��
2017/03/18,04:20,1.020,1.678,1.136,1.981,1.374,0.545,1.001,0.930,���쐼,2.2,��
2017/03/18,04:30,1.020,1.676,1.138,1.983,1.371,0.544,1.002,0.931,�쐼,1.9,��
2017/03/18,04:40,1.020,1.676,1.138,1.984,1.369,0.546,1.001,0.931,�쐼,2.8,��
2017/03/18,04:50,1.022,1.675,1.138,1.980,1.370,0.545,1.001,0.930,���쐼,2.5,��
2017/03/18,05:00,1.018,1.677,1.137,1.983,1.371,0.545,1.001,0.930,���쐼,2.9,��
2017/03/18,05:10,1.019,1.675,1.137,1.982,1.371,0.544,1.002,0.930,�쐼,2.6,��
2017/03/18,05:20,1.020,1.676,1.137,1.982,1.369,0.544,1.000,0.929,�쐼,3.4,��
2017/03/18,05:30,1.018,1.677,1.137,1.981,1.370,0.543,1.001,0.931,�쐼,4.3,��
2017/03/18,05:40,1.020,1.671,1.135,1.981,1.370,0.543,1.001,0.931,�쐼,4.8,��
2017/03/18,05:50,1.020,1.673,1.136,1.981,1.372,0.545,0.999,0.930,�쐼,4.0,��
2017/03/18,06:00,1.019,1.672,1.140,1.984,1.371,0.542,1.001,0.930,�쐼,4.1,��
2017/03/18,06:10,1.018,1.674,1.138,1.980,1.369,0.543,1.001,0.930,�쐼,3.4,��
2017/03/18,06:20,1.021,1.671,1.135,1.983,1.369,0.544,1.000,0.931,���쐼,2.6,��
2017/03/18,06:30,1.020,1.676,1.137,1.984,1.369,0.545,1.000,0.929,��,2.5,��
2017/03/18,06:40,1.019,1.678,1.136,1.985,1.369,0.543,1.002,0.930,���k��,2.9,��
2017/03/18,06:50,1.020,1.673,1.136,1.982,1.369,0.543,1.000,0.931,���k��,3.3,��
2017/03/18,07:00,1.022,1.676,1.138,1.984,1.369,0.543,1.002,0.930,�k��,4.0,��
2017/03/18,07:10,1.020,1.677,1.138,1.982,1.370,0.543,1.002,0.931,�k��,4.4,��
2017/03/18,07:20,1.022,1.677,1.140,1.985,1.371,0.545,1.002,0.931,�k��,4.5,��
2017/03/18,07:30,1.022,1.678,1.140,1.986,1.372,0.545,1.003,0.930,�k��,5.6,��
2017/03/18,07:40,1.021,1.681,1.139,1.986,1.374,0.546,1.002,0.931,�k��,5.1,��
2017/03/18,07:50,1.022,1.679,1.139,1.983,1.372,0.545,1.004,0.932,���k��,3.2,��
2017/03/18,08:00,1.023,1.683,1.140,1.989,1.373,0.546,1.002,0.930,�k��,3.7,��
2017/03/18,08:10,1.023,1.681,1.139,1.984,1.375,0.547,1.006,0.933,���k��,5.7,��
2017/03/18,08:20,1.022,1.681,1.141,1.988,1.374,0.546,1.006,0.932,�k��,5.7,��
2017/03/18,08:30,1.024,1.679,1.139,1.990,1.374,0.545,1.007,0.931,�k��,10.2,��
2017/03/18,08:40,1.023,1.680,1.143,1.988,1.376,0.546,1.006,0.933,�k��,9.0,��
2017/03/18,08:50,1.025,1.682,1.141,1.987,1.376,0.546,1.002,0.932,�k��,7.2,��
2017/03/18,09:00,1.027,1.677,1.141,1.986,1.375,0.548,1.005,0.933,�k��,5.8,��
2017/03/18,09:10,1.028,1.682,1.144,1.988,1.376,0.546,1.003,0.934,���k��,5.6,��
2017/03/18,09:20,1.024,1.683,1.141,1.991,1.377,0.545,1.002,0.933,���k��,6.7,��
2017/03/18,09:30,1.026,1.683,1.142,1.990,1.377,0.547,1.004,0.933,�k��,5.9,��
2017/03/18,09:40,1.025,1.682,1.144,1.991,1.377,0.546,1.005,0.932,���k��,4.8,��
2017/03/18,09:50,1.025,1.682,1.145,1.988,1.378,0.546,1.003,0.935,�k��,7.1,��
2017/03/18,10:00,1.028,1.679,1.144,1.991,1.380,0.546,1.004,0.932,�k��,8.2,��
2017/03/18,10:10,1.028,1.681,1.147,1.993,1.381,0.547,1.005,0.934,�k��,8.8,��
2017/03/18,10:20,1.029,1.682,1.147,1.994,1.381,0.546,1.004,0.932,�k��,8.7,��
2017/03/18,10:30,1.030,1.682,1.146,1.990,1.379,0.549,1.004,0.934,�k��,6.7,��
2017/03/18,10:40,1.032,1.684,1.149,1.995,1.380,0.546,1.005,0.935,�k�k��,6.0,��
2017/03/18,10:50,1.031,1.685,1.147,1.996,1.382,0.547,1.004,0.933,�k��,6.6,��
2017/03/18,11:00,1.031,1.686,1.147,1.993,1.381,0.545,1.005,0.933,�k��,4.8,��
2017/03/18,11:10,1.032,1.687,1.148,1.995,1.380,0.547,1.005,0.933,�k��,4.4,��
2017/03/18,11:20,1.030,1.685,1.151,1.994,1.384,0.547,1.005,0.931,�k��,7.5,��
2017/03/18,11:30,1.033,1.688,1.149,1.996,1.381,0.548,1.003,0.933,�k��,5.0,��
2017/03/18,11:40,1.032,1.686,1.151,1.994,1.382,0.549,1.007,0.931,���k��,5.4,��
2017/03/18,11:50,1.031,1.686,1.151,1.996,1.384,0.549,1.005,0.933,�k��,6.0,��
2017/03/18,12:00,1.035,1.686,1.151,1.995,1.381,0.548,1.005,0.932,�k��,8.6,��
2017/03/18,12:10,1.034,1.687,1.151,1.995,1.384,0.547,1.004,0.932,�k��,7.1,��
2017/03/18,12:20,1.032,1.691,1.153,1.997,1.382,0.548,1.004,0.933,��,0.6,��
2017/03/18,12:30,1.032,1.689,1.148,1.997,1.382,0.546,1.004,0.933,�쓌,4.7,��
2017/03/18,12:40,1.029,1.689,1.151,2.000,1.382,0.548,1.003,0.933,��쓌,6.7,��
2017/03/18,12:50,1.029,1.688,1.147,1.996,1.379,0.548,1.003,0.934,��쓌,7.5,��
2017/03/18,13:00,1.030,1.688,1.147,2.000,1.382,0.550,1.004,0.934,��쓌,6.6,��
2017/03/18,13:10,1.029,1.687,1.150,2.000,1.384,0.548,1.006,0.933,��쓌,8.1,��
2017/03/18,13:20,1.031,1.689,1.150,1.997,1.382,0.548,1.005,0.931,��쓌,7.4,��
2017/03/18,13:30,1.034,1.689,1.151,1.996,1.380,0.549,1.004,0.931,��쓌,6.5,��
2017/03/18,13:40,1.031,1.688,1.150,1.997,1.380,0.550,1.005,0.931,��,6.7,��
2017/03/18,13:50,1.034,1.689,1.149,1.997,1.383,0.549,1.003,0.935,��,5.0,��
2017/03/18,14:00,1.031,1.691,1.147,2.000,1.385,0.550,1.005,0.933,��쓌,5.7,��
2017/03/18,14:10,1.032,1.688,1.149,1.999,1.391,0.549,1.004,0.935,��쓌,5.6,��
2017/03/18,14:20,1.033,1.693,1.151,1.998,1.386,0.550,1.005,0.934,��쓌,6.1,��
2017/03/18,14:30,1.034,1.695,1.151,1.994,1.387,0.550,1.005,0.933,��쓌,6.6,��
2017/03/18,14:40,1.031,1.694,1.150,1.998,1.387,0.553,1.005,0.936,��쓌,6.1,��
2017/03/18,14:50,1.036,1.693,1.149,1.997,1.388,0.550,1.004,0.936,��쓌,5.7,��
2017/03/18,15:00,1.033,1.694,1.149,2.000,1.388,0.550,1.005,0.934,��,4.3,��
2017/03/18,15:10,1.032,1.695,1.150,1.999,1.387,0.550,1.005,0.935,��,2.3,��
2017/03/18,15:20,1.036,1.694,1.151,1.999,1.388,0.550,1.005,0.935,��쐼,2.0,��
2017/03/18,15:30,1.035,1.699,1.154,1.997,1.389,0.551,1.007,0.933,�쐼,1.9,��
2017/03/18,15:40,1.032,1.698,1.153,1.999,1.388,0.551,1.006,0.937,���쐼,4.7,��
2017/03/18,15:50,1.035,1.698,1.152,2.001,1.390,0.551,1.005,0.937,��,7.5,��
2017/03/18,16:00,1.036,1.697,1.156,2.002,1.388,0.552,1.006,0.936,��,5.5,��
2017/03/18,16:10,1.037,1.696,1.152,2.000,1.390,0.552,1.004,0.936,��,7.5,��
2017/03/18,16:20,1.036,1.698,1.150,2.002,1.389,0.551,1.006,0.936,��,7.2,��
2017/03/18,16:30,1.037,1.692,1.150,2.001,1.390,0.551,1.005,0.933,��,6.6,��
2017/03/18,16:40,1.037,1.697,1.152,1.999,1.388,0.551,1.006,0.936,��,5.0,��
2017/03/18,16:50,1.035,1.698,1.150,1.997,1.390,0.551,1.006,0.936,��,7.0,��
2017/03/18,17:00,1.037,1.695,1.151,2.000,1.387,0.550,1.008,0.936,��,5.1,��
2017/03/18,17:10,1.036,1.695,1.153,2.001,1.389,0.551,1.006,0.935,��,6.3,��
2017/03/18,17:20,1.035,1.696,1.152,1.997,1.390,0.550,1.007,0.936,��,5.7,��
2017/03/18,17:30,1.035,1.697,1.150,2.001,1.389,0.549,1.005,0.935,��,6.5,��
2017/03/18,17:40,1.033,1.694,1.153,2.002,1.390,0.550,1.004,0.935,��,5.6,��
2017/03/18,17:50,1.033,1.695,1.152,2.002,1.387,0.550,1.006,0.936,��,6.0,��
2017/03/18,18:00,1.035,1.695,1.150,2.001,1.385,0.551,1.007,0.936,��,6.0,��
2017/03/18,18:10,1.034,1.691,1.153,2.000,1.386,0.551,1.007,0.935,��,7.4,��
2017/03/18,18:20,1.034,1.694,1.152,2.001,1.387,0.549,1.008,0.934,��,6.4,��
2017/03/18,18:30,1.036,1.693,1.153,1.998,1.388,0.549,1.008,0.936,��,6.3,��
2017/03/18,18:40,1.036,1.695,1.148,1.998,1.389,0.551,1.008,0.935,��,6.8,��
2017/03/18,18:50,1.034,1.692,1.150,1.999,1.389,0.548,1.008,0.934,��,6.7,��
2017/03/18,19:00,1.037,1.694,1.150,2.000,1.388,0.551,1.009,0.936,��,7.9,��
2017/03/18,19:10,1.035,1.694,1.152,2.000,1.387,0.551,1.009,0.936,��,8.8,��
2017/03/18,19:20,1.035,1.693,1.153,2.000,1.389,0.550,1.010,0.936,��,8.4,��
2017/03/18,19:30,1.035,1.692,1.153,2.000,1.390,0.551,1.008,0.935,��,7.6,��
2017/03/18,19:40,1.035,1.692,1.152,2.002,1.387,0.549,1.008,0.936,��,6.6,��
2017/03/18,19:50,1.036,1.693,1.152,2.002,1.385,0.550,1.008,0.935,��,6.7,��
2017/03/18,20:00,1.033,1.695,1.151,2.003,1.387,0.549,1.008,0.936,��,6.2,��
2017/03/18,20:10,1.034,1.691,1.151,1.999,1.389,0.551,1.007,0.936,��,6.2,��
2017/03/18,20:20,1.035,1.693,1.151,2.003,1.384,0.550,1.008,0.937,��,5.0,��
2017/03/18,20:30,1.034,1.693,1.151,2.001,1.385,0.549,1.006,0.934,��,5.4,��
2017/03/18,20:40,1.033,1.694,1.153,1.999,1.386,0.552,1.009,0.935,���쐼,7.4,��
2017/03/18,20:50,1.034,1.692,1.153,2.003,1.386,0.549,1.009,0.935,���쐼,6.1,��
2017/03/18,21:00,1.033,1.695,1.150,2.002,1.386,0.550,1.007,0.935,���쐼,5.5,��
2017/03/18,21:10,1.032,1.692,1.152,2.003,1.387,0.551,1.007,0.935,���쐼,5.7,��
2017/03/18,21:20,1.038,1.691,1.150,1.998,1.387,0.550,1.008,0.936,���쐼,5.6,��
2017/03/18,21:30,1.032,1.693,1.152,2.001,1.387,0.551,1.009,0.935,���쐼,4.4,��
2017/03/18,21:40,1.032,1.694,1.151,2.003,1.388,0.550,1.008,0.934,���쐼,4.6,��
2017/03/18,21:50,1.033,1.691,1.152,2.003,1.390,0.550,1.008,0.935,���쐼,4.4,��
2017/03/18,22:00,1.034,1.691,1.149,2.002,1.387,0.550,1.009,0.936,���쐼,5.1,��
2017/03/18,22:10,1.031,1.691,1.152,2.002,1.388,0.550,1.008,0.935,���쐼,5.2,��
2017/03/18,22:20,1.033,1.691,1.152,2.002,1.385,0.550,1.009,0.934,���쐼,4.3,��
2017/03/18,22:30,1.034,1.694,1.150,2.000,1.386,0.552,1.008,0.935,���쐼,3.8,��
2017/03/18,22:40,1.032,1.690,1.152,2.004,1.385,0.550,1.009,0.936,���쐼,4.7,��
2017/03/18,22:50,1.035,1.691,1.152,2.003,1.386,0.551,1.010,0.935,���쐼,5.1,��
2017/03/18,23:00,1.033,1.690,1.151,2.002,1.387,0.550,1.009,0.935,���쐼,5.2,��
2017/03/18,23:10,1.034,1.693,1.152,2.001,1.387,0.552,1.008,0.937,���쐼,5.1,��
2017/03/18,23:20,1.033,1.692,1.154,2.001,1.385,0.549,1.009,0.935,���쐼,4.8,��
2017/03/18,23:30,1.034,1.692,1.151,2.001,1.385,0.550,1.008,0.934,�쐼,5.0,��
2017/03/18,23:40,1.033,1.694,1.152,2.002,1.387,0.550,1.009,0.935,�쐼,5.6,��
2017/03/18,23:50,1.035,1.693,1.149,2.003,1.388,0.551,1.009,0.936,���쐼,5.0,��
